lvccld.org alexa rank chart, lvccld.org alexa rank daily changes

lvccld.org alexa rank chart, lvccld.org alexa rank daily changes

lvccld.org
Actual rank:
117 830

RANK HISTORY

Date Rank Diff
2017/09/22 117 830 +3 899
2017/09/20 113 931 -163
2017/09/19 114 094 +525
2017/09/18 113 569 -1 257
2017/09/17 114 826 +2 241
2017/09/16 112 585 +1 536
2017/09/15 111 049 +1 432
2017/09/14 109 617 +2 710
2017/09/13 106 907 +1 061
2017/09/12 105 846 +377
2017/09/11 105 469 +648
2017/09/10 104 821 +715
2017/09/09 104 106 +2 360
2017/09/08 101 746 -432
2017/09/07 102 178 +1 290
2017/09/06 100 888 +1 514
2017/09/05 99 374 +13
2017/09/04 99 361 -163
2017/09/03 99 524 -700
2017/09/02 100 224 +206
2017/09/01 100 018 +550
2017/08/31 99 468 +1 113
2017/08/30 98 355 +138
2017/08/29 98 217 -899
2017/08/28 99 116 -943
2017/08/27 100 059 -2 440
2017/08/26 102 499 +1 996
2017/08/25 100 503 +1 335
2017/08/24 99 168 +581
2017/08/23 98 587 +191
2017/08/22 98 396 -86
2017/08/21 98 482 -4 025
2017/08/20 102 507 -598
2017/08/19 103 105 -51
2017/08/18 103 156 +1 760
2017/08/17 101 396 -1 091
2017/08/16 102 487 -561
2017/08/15 103 048 -3 396
2017/08/14 106 444 -975
2017/08/13 107 419 +358
2017/08/12 107 061 -585
2017/08/11 107 646 +95
2017/08/10 107 551 +185
2017/08/09 107 366 -1 782
2017/08/08 109 148 -351
2017/08/07 109 499 -1 980
2017/08/06 111 479 -1 794
2017/08/05 113 273 -1 445
2017/08/04 114 718 -484
2017/08/03 115 202 -931
2017/08/02 116 133 -1 496
2017/08/01 117 629 -361
2017/07/31 117 990 -1 606
2017/07/30 119 596 -1 712
2017/07/29 121 308 +370
2017/07/28 120 938 -2 113
2017/07/27 123 051 +2 819
2017/07/26 120 232 +973
2017/07/25 119 259 -1 885
2017/07/24 121 144

WIDGET FOR YOUR SITE

DOMAINS WITH THE NEAREST RANK

Domain Rank
smics.com 117 825
bpm.it 117 826
baconplay.com 117 827
mappery.com 117 828
pivotanimator.net 117 829
lvccld.org 117 830
toner.jp 117 831
speed-share.org 117 832
wabe.org 117 833
moralstories.org 117 834
activeduty.com 117 835

DOMAINS WITH THE NEAREST RANK BY TLD .org

Domain Rank
naleo.org 117 637
worldskills.org 117 675
histmag.org 117 684
district287.org 117 746
hermitagemuseum.org 117 789
lvccld.org 117 830
speed-share.org 117 832
wabe.org 117 833
moralstories.org 117 834
dasd.org 117 849
haolaba.org 117 880